| time (UTC) | temp F | wind direction | speed knots | gust knots | rain 1hr in | rain 24hr in | rain mn in | humidity % | barometer mb |
| 20260906050613 | 49 | 133 | 2.6 | 6.1 | 0.00 | 0.00 | 0.00 | 78 | 1005.7 |
| 20260906044619 | 49 | 116 | 1.7 | 6.1 | 0.00 | 0.00 | 0.00 | 79 | 1005.5 |
| 20260906042646 | 48 | 137 | 1.7 | 6.1 | 0.00 | 0.00 | 0.00 | 82 | 1005.4 |
| 20260906040952 | 47 | 162 | 2.6 | 6.1 | 0.00 | 0.00 | 0.00 | 83 | 1005.2 |
| 20260906035247 | 48 | 124 | 1.7 | 7.0 | 0.00 | 0.00 | 0.00 | 81 | 1005.0 |
| 20260906035244 | 48 | 124 | 1.7 | 7.0 | 0.00 | 0.00 | 0.00 | 81 | 1005.0 |
| 20260906033438 | 48 | 148 | 2.6 | 7.0 | 0.00 | 0.00 | 0.00 | 81 | 1004.7 |
| 20260906031458 | 48 | 135 | 2.6 | 6.1 | 0.00 | 0.00 | 0.00 | 81 | 1004.4 |
| 20260906025500 | 48 | 134 | 1.7 | 6.1 | 0.00 | 0.00 | 0.00 | 82 | 1004.1 |
| 20260906023723 | 47 | 140 | 1.7 | 5.2 | 0.00 | 0.00 | 0.00 | 84 | 1003.9 |
| 20260906022013 | 47 | 131 | 1.7 | 5.2 | 0.00 | 0.00 | 0.00 | 84 | 1003.7 |
| 20260906020203 | 47 | 143 | 1.7 | 6.1 | 0.00 | 0.00 | 0.00 | 84 | 1003.6 |
| 20260906014452 | 47 | 115 | 1.7 | 7.0 | 0.00 | 0.00 | 0.00 | 84 | 1003.4 |
| 20260906012627 | 48 | 117 | 1.7 | 7.0 | 0.00 | 0.00 | 0.00 | 84 | 1003.1 |
| 20260906004733 | 48 | 133 | 1.7 | 7.0 | 0.00 | 0.00 | 0.00 | 83 | 1002.8 |
| 20260906002935 | 49 | 153 | 1.7 | 7.0 | 0.00 | 0.00 | 0.00 | 83 | 1002.5 |
| 20260906001316 | 50 | 221 | 1.7 | 7.8 | 0.00 | 0.00 | 0.00 | 83 | 1002.3 |
| 20260905233658 | 50 | 144 | 1.7 | 5.2 | 0.00 | 0.00 | 0.00 | 83 | 1001.9 |
| 20260905232003 | 51 | 162 | 0.9 | 6.1 | 0.00 | 0.00 | 0.00 | 84 | 1001.7 |
| 20260905224358 | 51 | 178 | 0.9 | 4.3 | 0.00 | 0.00 | 0.00 | 85 | 1001.3 |
| 20260905222559 | 50 | 148 | 1.7 | 5.2 | 0.00 | 0.00 | 0.00 | 88 | 1001.2 |
| 20260905220807 | 50 | 193 | 0.9 | 4.3 | 0.00 | 0.00 | 0.00 | 88 | 1001.1 |
| 20260905213123 | 51 | 207 | 0.9 | 3.5 | 0.00 | 0.00 | 0.00 | 86 | 1000.8 |
| 20260905211158 | 52 | 201 | 0.9 | 4.3 | 0.00 | 0.00 | 0.00 | 84 | 1000.5 |
| 20260905205253 | 53 | 200 | 0.9 | 3.5 | 0.00 | 0.00 | 0.00 | 82 | 1000.3 |
| 20260905203443 | 53 | 112 | 0.9 | 3.5 | 0.00 | 0.00 | 0.00 | 82 | 1000.1 |
| 20260905201524 | 54 | 189 | 0.9 | 4.3 | 0.00 | 0.00 | 0.00 | 80 | 999.9 |
| 20260905195859 | 54 | 151 | 0.9 | 3.5 | 0.00 | 0.00 | 0.00 | 79 | 999.7 |
| 20260905194023 | 55 | 282 | 0.0 | 2.6 | 0.00 | 0.00 | 0.00 | 77 | 999.6 |
| 20260905192344 | 55 | 237 | 0.0 | 1.7 | 0.00 | 0.00 | 0.00 | 76 | 999.4 |
| 20260905190459 | 55 | 181 | 0.0 | 2.6 | 0.00 | 0.00 | 0.00 | 76 | 999.4 |
| 20260905184817 | 55 | 200 | 0.0 | 1.7 | 0.00 | 0.00 | 0.00 | 76 | 999.3 |
| 20260905183038 | 54 | 176 | 0.9 | 2.6 | 0.00 | 0.00 | 0.00 | 78 | 999.1 |
| 20260905181419 | 0 | 199 | 0.0 | 2.6 | 0.00 | 0.00 | 0.00 | 78 | 999.1 |
| 20260905181414 | 53 | 199 | 0.0 | 2.6 | 0.00 | 0.00 | 0.00 | 78 | 999.1 |
| 20260905175636 | 53 | 171 | 0.9 | 3.5 | 0.00 | 0.00 | 0.00 | 78 | 998.9 |
| 20260905164638 | 56 | 197 | 0.0 | 2.6 | 0.00 | 0.00 | 0.00 | 72 | 998.3 |
| 20260905163018 | 57 | 168 | 0.0 | 1.7 | 0.00 | 0.00 | 0.00 | 68 | 998.0 |
| 20260905161040 | 60 | 237 | 0.0 | 0.9 | 0.00 | 0.00 | 0.00 | 63 | 997.8 |
| 20260905155053 | 62 | 250 | 0.9 | 2.6 | 0.00 | 0.00 | 0.00 | 54 | 997.5 |
| 20260905153247 | 62 | 208 | 0.0 | 2.6 | 0.00 | 0.00 | 0.00 | 55 | 997.4 |
| 20260905151259 | 63 | 108 | 0.9 | 2.6 | 0.00 | 0.00 | 0.00 | 52 | 997.3 |
| 20260905142327 | 65 | 155 | 1.7 | 5.2 | 0.00 | 0.00 | 0.00 | 45 | 996.8 |
| 20260905140402 | 66 | 230 | 1.7 | 6.1 | 0.00 | 0.00 | 0.00 | 40 | 996.7 |
| 20260905134513 | 65 | 291 | 1.7 | 5.2 | 0.00 | 0.00 | 0.00 | 44 | 996.6 |
| 20260905132837 | 64 | 170 | 0.9 | 3.5 | 0.00 | 0.00 | 0.00 | 48 | 996.5 |
| 20260905131228 | 64 | 196 | 1.7 | 6.1 | 0.00 | 0.00 | 0.00 | 47 | 996.4 |
| 20260905125253 | 65 | 221 | 2.6 | 7.0 | 0.00 | 0.00 | 0.00 | 42 | 996.3 |
| 20260905123308 | 65 | 242 | 3.5 | 8.7 | 0.00 | 0.00 | 0.00 | 49 | 996.2 |
| 20260905121408 | 65 | 224 | 2.6 | 8.7 | 0.00 | 0.00 | 0.00 | 45 | 996.0 |
| 20260905113522 | 64 | 219 | 3.5 | 8.7 | 0.00 | 0.00 | 0.00 | 47 | 995.9 |
| 20260905111749 | 64 | 217 | 3.5 | 7.8 | 0.00 | 0.00 | 0.00 | 48 | 995.8 |
| 20260905105803 | 64 | 205 | 2.6 | 6.1 | 0.00 | 0.00 | 0.00 | 46 | 995.8 |
| 20260905102330 | 64 | 150 | 1.7 | 6.1 | 0.00 | 0.00 | 0.00 | 53 | 995.5 |
| 20260905100609 | 63 | 213 | 1.7 | 5.2 | 0.00 | 0.00 | 0.00 | 52 | 995.4 |
| 20260905094611 | 62 | 232 | 2.6 | 7.0 | 0.00 | 0.00 | 0.00 | 53 | 995.2 |
| 20260905092857 | 61 | 218 | 1.7 | 5.2 | 0.00 | 0.00 | 0.00 | 57 | 995.2 |
| 20260905090938 | 59 | 222 | 1.7 | 6.1 | 0.00 | 0.00 | 0.00 | 63 | 995.1 |
| 20260905085114 | 58 | 192 | 0.9 | 5.2 | 0.00 | 0.00 | 0.00 | 69 | 995.0 |
| 20260905083433 | 56 | 171 | 1.7 | 4.3 | 0.00 | 0.00 | 0.00 | 75 | 994.9 |
| 20260905081608 | 55 | 212 | 0.9 | 3.5 | 0.00 | 0.00 | 0.00 | 78 | 994.9 |
| 20260905075618 | 55 | 205 | 0.9 | 3.5 | 0.00 | 0.00 | 0.00 | 80 | 994.7 |
| 20260905073953 | 54 | 247 | 0.9 | 3.5 | 0.00 | 0.00 | 0.00 | 82 | 994.7 |
| 20260905072305 | 54 | 188 | 0.9 | 1.7 | 0.00 | 0.00 | 0.00 | 89 | 994.5 |
| 20260905064543 | 52 | 202 | 0.9 | 2.6 | 0.00 | 0.00 | 0.00 | 92 | 994.4 |
| 20260905062928 | 52 | 200 | 0.9 | 1.7 | 0.00 | 0.00 | 0.00 | 92 | 994.3 |
| 20260905060933 | 52 | 358 | 0.9 | 1.7 | 0.00 | 0.00 | 0.00 | 92 | 994.2 |
| 20260905055238 | 51 | 176 | 0.9 | 2.6 | 0.00 | 0.00 | 0.00 | 92 | 994.1 |